Content
SEND FEEDBACK

Daily
Averages
Monthly
Summary
United States of America

ASATDAS, GUAM


Home > North America > United States > Guam
Elevation: 612 feet     Latitude: 13 35N     Longitude: 144 56E

WEATHER
 
SELECT A DAY
Number of Records: 214,141;   Date Range: 1/1/95 - 10/30/14
 
SHARE

PRINT THIS DATA

[ ← Previous Day ]
WEATHER ALMANAC - SEPTEMBER 13, 2013
[ Next Day → ]
[ °C ]   °F
Weather ElementAverageHighLow
Temperature83.5 °F88 °F (2:54 pm)80.1 °F (1:54 am)
Dewpoint76.4 °F78.8 °F (2:25 pm)73.9 °F (6:54 pm)
Humidity79.5 %88 % (9:54 pm)65 % (2:54 pm)
Barometer29.82 in29.88 in (9:54 am)29.75 in (2:54 pm)
Wind Speed4.5 mph12.7 mph (9:54 am)
Wind Gust18.4 mph (9:54 am)
Weather ElementAverage
Visibility10 mi
Wind DirectionSSE (143.7 °)

Weather ElementTotal
Precipitation---
Cooling Degree Days19.1 (Base 65)
Growing Degree Days34.1 (Base 50)
Averaged from 27 records on September 13, 2013
WEATHER CONDITIONS BREAKOUT
WIND DIRECTION BREAKOUT
WEATHER BY HOUR - SEPTEMBER 13, 2013
[ °C ]   °F
Local TimeTemperatureDewpointHumidityBarometerVisibilityWind DirectionWind SpeedGust SpeedPrecipitationEventsConditions
1:54 AM80.1 °F75.9 °F87 %29.82 in10.0 miSouth (190°)3.5 mphClear
2:54 AM80.1 °F75.9 °F87 %29.80 in10.0 miCalmClear
3:54 AM80.1 °F75.9 °F87 %29.81 in10.0 miSSW (210°)3.5 mphClear
4:54 AM80.1 °F75.9 °F87 %29.81 in10.0 miSouth (190°)4.6 mphClear
5:54 AM80.1 °F75.9 °F87 %29.83 in10.0 miCalmClear
6:54 AM80.1 °F75.9 °F87 %29.85 in10.0 miSouth (190°)3.5 mphClear
7:54 AM82.0 °F77.0 °F85 %29.86 in10.0 miCalmClear
8:54 AM84.0 °F78.1 °F82 %29.87 in10.0 miSouth (190°)4.6 mphPartly Cloudy
9:54 AM86.0 °F77.0 °F74 %29.88 in10.0 miSW (220°)12.7 mph18.4 mph0.00 inMostly Cloudy
10:54 AM87.1 °F77.0 °F72 %29.86 in10.0 miSW (230°)8.1 mphPartly Cloudy
11:54 AM82.9 °F77.0 °F82 %29.83 in10.0 miNorth (360°)6.9 mphMostly Cloudy
12:10 PM84.2 °F77.0 °F79 %29.84 in10.0 miNorth (360°)4.6 mphMostly Cloudy
12:54 PM87.1 °F78.1 °F74 %29.81 in10.0 miVariable3.5 mphMostly Cloudy
1:02 PM87.8 °F75.2 °F66 %29.82 in10.0 miSSW (210°)6.9 mphMostly Cloudy
1:54 PM87.1 °F77.0 °F72 %29.77 in10.0 miSouth (180°)8.1 mphMostly Cloudy
2:25 PM86.0 °F78.8 °F79 %29.78 in10.0 miSouth (170°)10.4 mphMostly Cloudy
2:40 PM87.8 °F77.0 °F70 %29.78 in10.0 miSouth (190°)9.2 mphScattered Clouds
2:54 PM88.0 °F75.0 °F65 %29.75 in10.0 miSSW (200°)10.4 mphPartly Cloudy
3:54 PM86.0 °F77.0 °F74 %29.76 in10.0 miSouth (170°)6.9 mph17.3 mphMostly Cloudy
4:54 PM84.9 °F75.0 °F72 %29.76 in10.0 miSSW (200°)6.9 mphScattered Clouds
5:54 PM84.0 °F75.9 °F76 %29.78 in10.0 miSSW (210°)4.6 mphScattered Clouds
6:54 PM80.1 °F73.9 °F81 %29.81 in10.0 miSSW (210°)3.5 mphScattered Clouds
7:54 PM82.0 °F75.0 °F79 %29.82 in10.0 miCalmPartly Cloudy
8:54 PM82.0 °F75.9 °F82 %29.83 in10.0 miCalmPartly Cloudy
9:54 PM81.0 °F77.0 °F88 %29.84 in10.0 miCalmScattered Clouds
10:54 PM82.0 °F77.0 °F85 %29.83 in10.0 miCalmScattered Clouds
11:54 PM81.0 °F77.0 °F88 %29.81 in10.0 miCalmPartly Cloudy
Hourly data recorded from PGUM, located miles away from Asatdas, Guam







STORIES FROM OUR PARTNERS